Clarks Hill - Strom Thurmond Lake Weather Center

Moon Phase Calendar



Clarks Hill - Strom Thurmond Lake Water Level
Online Cameras

 


      

Current Conditions in Lincolnton
10/22/2021 7:28:53 PM

66°F
Feels Like 65
Clouds
Humidity
64%
Pressure
29.94"
Wind
5.7 mph (W)
Dew Point
54°F
UV Index
0/10 (Low)
Visibility
6 mi

Hourly Forecast

Date & Time Fri, Oct 22
7:00 PM
Fri, Oct 22
8:00 PM
Fri, Oct 22
9:00 PM
Fri, Oct 22
10:00 PM
Fri, Oct 22
11:00 PM
Sat, Oct 23
12:00 AM
Sat, Oct 23
1:00 AM
Sat, Oct 23
2:00 AM
Sat, Oct 23
3:00 AM
Sat, Oct 23
4:00 AM
Sat, Oct 23
5:00 AM
Sat, Oct 23
6:00 AM
Sat, Oct 23
7:00 AM
Sat, Oct 23
8:00 AM
Sat, Oct 23
9:00 AM
Sat, Oct 23
10:00 AM
Sat, Oct 23
11:00 AM
Sat, Oct 23
12:00 PM
Sat, Oct 23
1:00 PM
Sat, Oct 23
2:00 PM
Sat, Oct 23
3:00 PM
Sat, Oct 23
4:00 PM
Sat, Oct 23
5:00 PM
Sat, Oct 23
6:00 PM
Sat, Oct 23
7:00 PM
Sat, Oct 23
8:00 PM
Sat, Oct 23
9:00 PM
Sat, Oct 23
10:00 PM
Sat, Oct 23
11:00 PM
Sun, Oct 24
12:00 AM
Sun, Oct 24
1:00 AM
Sun, Oct 24
2:00 AM
Sun, Oct 24
3:00 AM
Sun, Oct 24
4:00 AM
Sun, Oct 24
5:00 AM
Sun, Oct 24
6:00 AM
Sun, Oct 24
7:00 AM
Sun, Oct 24
8:00 AM
Sun, Oct 24
9:00 AM
Sun, Oct 24
10:00 AM
Sun, Oct 24
11:00 AM
Sun, Oct 24
12:00 PM
Sun, Oct 24
1:00 PM
Sun, Oct 24
2:00 PM
Sun, Oct 24
3:00 PM
Sun, Oct 24
4:00 PM
Sun, Oct 24
5:00 PM
Sun, Oct 24
6:00 PM
Condition
Clouds

Clouds

Clouds

Clouds

Clouds

Clouds

Clouds

Clouds

Clear

Clear

Clear

Clear

Clear

Clear

Clear

Clear

Clear

Clear

Clear

Clear

Clear

Clear

Clear

Clear

Clear

Clear

Clear

Clear

Clear

Clear

Clear

Clear

Clear

Clear

Clear

Clear

Clear

Clear

Clear

Clear

Clear

Clear

Clouds

Clouds

Clouds

Clouds

Clouds

Clouds
Temperature 66°F65°F64°F62°F60°F56°F56°F54°F53°F52°F52°F51°F51°F51°F56°F62°F66°F69°F72°F75°F76°F76°F75°F71°F65°F63°F61°F60°F59°F59°F58°F57°F57°F56°F55°F55°F54°F54°F60°F65°F70°F74°F77°F78°F79°F80°F78°F72°F
Feels Like 65°F65°F63°F61°F59°F56°F55°F53°F52°F52°F51°F50°F50°F50°F55°F61°F65°F68°F72°F74°F75°F75°F74°F70°F64°F62°F60°F59°F58°F58°F57°F56°F56°F55°F54°F54°F53°F53°F58°F64°F69°F73°F76°F78°F79°F80°F78°F72°F
Cloudiness 41%43%65%50%38%28%22%19%0%0%0%0%0%0%0%0%0%0%0%0%0%0%0%0%0%0%0%0%0%0%0%0%0%0%0%0%0%0%0%0%1%2%11%18%12%36%34%35%
Visibility 6 mi6 mi6 mi6 mi6 mi6 mi6 mi6 mi6 mi6 mi6 mi6 mi6 mi6 mi6 mi6 mi6 mi6 mi6 mi6 mi6 mi6 mi6 mi6 mi6 mi6 mi6 mi6 mi6 mi6 mi6 mi6 mi6 mi6 mi6 mi6 mi6 mi6 mi6 mi6 mi6 mi6 mi6 mi6 mi6 mi6 mi6 mi6 mi
Precipitation 0%0%0%0%0%0%0%0%0%0%0%0%0%0%0%0%0%0%0%0%0%0%0%0%0%0%0%0%0%0%0%0%0%0%0%0%0%0%0%0%0%0%0%0%0%0%0%0%
Humidity 64%65%67%71%76%81%83%87%89%90%90%91%91%91%78%66%58%53%47%42%40%39%41%55%61%63%65%67%69%71%73%74%75%76%77%78%79%78%69%58%50%45%40%37%35%35%40%54%
Dew Point 54°F53°F53°F52°F52°F51°F50°F50°F50°F49°F49°F48°F48°F48°F49°F50°F51°F51°F51°F50°F50°F50°F50°F54°F51°F50°F50°F49°F49°F49°F49°F49°F49°F48°F48°F48°F48°F48°F49°F50°F51°F51°F51°F50°F49°F49°F52°F55°F
Pressure 29.94"29.94"29.94"29.97"30"29.97"29.97"29.97"29.97"29.97"30"30"30.03"30.03"30.06"30.09"30.09"30.09"30.06"30.03"30"30"30"30"30.03"30.06"30.06"30.09"30.09"30.09"30.09"30.09"30.09"30.09"30.09"30.12"30.12"30.12"30.15"30.15"30.15"30.15"30.12"30.09"30.09"30.06"30.06"30.06"
Wind Speed 5.7 mph5.6 mph6 mph6.1 mph6 mph6 mph5.8 mph5.2 mph5.1 mph5.1 mph5.1 mph4.4 mph4.3 mph4.2 mph4.3 mph5.8 mph6.1 mph5.3 mph4.4 mph3.6 mph2.9 mph2.3 mph2 mph0.9 mph1.2 mph2.1 mph1.2 mph0.4 mph0.5 mph1.1 mph1.2 mph1.6 mph1.6 mph1.3 mph2.5 mph2.6 mph2.4 mph2.1 mph2.1 mph3.4 mph3.7 mph4.4 mph4.7 mph4.7 mph5.1 mph5.4 mph4.8 mph3.5 mph
Wind
Direction
270°
W
275°
W
272°
W
268°
W
260°
W
258°
WSW
268°
W
273°
W
282°
WNW
284°
WNW
293°
WNW
301°
WNW
321°
NW
335°
NNW

N
31°
NNE
45°
NE
51°
NE
52°
NE
53°
NE
57°
ENE
101°
E
143°
SE
201°
SSW
300°
WNW
325°
NW
337°
NNW
267°
W
306°
NW

N
44°
NE
81°
E
84°
E
73°
ENE
40°
NE
53°
NE
96°
E
116°
ESE
128°
SE
149°
SSE
157°
SSE
159°
SSE
160°
SSE
169°
S
176°
S
189°
S
194°
SSW
207°
SSW

Daily Forecast

Date High Low Precip. Humidity
Today
Oct 22

Rain
77 °F
60 °F
54%
40%
Saturday
Oct 23

Clear
76 °F
51 °F
0%
47%
Sunday
Oct 24

Clouds
78 °F
54 °F
0%
37%
Monday
Oct 25

Rain
81 °F
57 °F
70%
51%
Tuesday
Oct 26

Clear
74 °F
57 °F
50%
39%
Wednesday
Oct 27

Rain
71 °F
53 °F
75%
44%
Thursday
Oct 28

Rain
71 °F
60 °F
100%
34%
Friday
Oct 29

Clouds
63 °F
51 °F
0%
43%
Saturday
Oct 30

Clouds
65 °F
48 °F
0%
48%
Sunday
Oct 31

Clear
69 °F
44 °F
0%
42%
Monday
Nov 1

Clouds
74 °F
50 °F
0%
42%
Tuesday
Nov 2

Clouds
64 °F
47 °F
0%
39%
Wednesday
Nov 3

Clouds
62 °F
41 °F
0%
29%
Thursday
Nov 4

Clear
69 °F
43 °F
0%
34%
Friday
Nov 5

Clouds
71 °F
49 °F
0%
35%
Saturday
Nov 6

Rain
73 °F
55 °F
59%
62%

Temperature 8-14 Day Outlook



Precipitation 8-14 Day Outlook




Quick Links
Clarks Hill - Strom Thurmond Lake News
Clarks Hill - Strom Thurmond Lake Photos
Clarks Hill - Strom Thurmond Lake Videos




About Us
Contact Us
Site Map
Search Site
Advertise With Us
   
StromThurmond.USLakes.info
THE CLARKS HILL - STROM THURMOND LAKE WEBSITE

Copyright 2021, Lakes Online
Privacy    |    Legal